This demonstration page uses our WeatherBlox Daily Observations layout. Learn more.

Left ArrowRight Arrow

38.20091, -84.87328

Hourly Observations for April 17, 2022

Temp ( °F °C ) Dew Point ( °F °C ) Humidity (%) Winds ( mph kmh ) Pressure ( in mb ) Visibility ( mi km ) Precip ( " mm )
12:53 am 00:53 Clear 50 10 26 -3.3 39 39 NNW 8 13 30.14 1021 10 16 0.00 0.00
1:53 am 01:53 Clear 48 8.9 26 -3.3 42 42 N 8 13 30.16 1021 10 16 0.00 0.00
2:53 am 02:53 Clear 46 7.8 26 -3.3 46 46 N 8 13 30.16 1021 10 16 0.00 0.00
3:53 am 03:53 Clear 44 6.7 26 -3.3 49 49 NNE 6 9 30.17 1022 10 16 0.00 0.00
4:53 am 04:53 Clear 43 6.1 27 -2.8 53 53 NNE 7 11 30.17 1022 10 16 0.00 0.00
5:53 am 05:53 Clear 41 5 27 -2.8 57 57 NE 7 11 30.19 1022 10 16 0.00 0.00
6:53 am 06:53 Clear 40 4.4 25 -3.9 55 55 NE 9 15 30.20 1023 10 16 0.00 0.00
7:53 am 07:53 Sunny 40 4.4 25 -3.9 55 55 ENE 9 15 30.24 1024 10 16 0.00 0.00
8:53 am 08:53 Sunny 41 5 25 -3.9 53 53 NE 12 19 30.24 1024 10 16 0.00 0.00
9:53 am 09:53 Sunny 43 6.1 25 -3.9 49 49 ENE 10 17 30.24 1024 10 16 0.00 0.00
10:53 am 10:53 Sunny 45 7.2 25 -3.9 46 46 E 12 19 30.26 1025 10 16 0.00 0.00
11:53 am 11:53 Sunny 46 7.8 26 -3.3 46 46 NE 10 17 30.23 1024 10 16 0.00 0.00
12:53 pm 12:53 Sunny 48 8.9 27 -2.8 44 44 ENE 12 19 30.21 1023 10 16 0.00 0.00
1:53 pm 13:53 Sunny 49 9.4 26 -3.3 41 41 NE 12 19 30.19 1023 10 16 0.00 0.00
2:53 pm 14:53 Sunny 51 10.6 26 -3.3 38 38 E 10 17 30.19 1022 10 16 0.00 0.00
3:53 pm 15:53 Sunny 51 10.6 26 -3.3 38 38 E 8 13 30.16 1021 10 16 0.00 0.00
4:53 pm 16:53 Sunny 51 10.6 25 -3.9 36 36 NE 10 17 30.14 1021 10 16 0.00 0.00
5:53 pm 17:53 Sunny 50 10 25 -3.9 38 38 NE 9 15 30.11 1020 10 16 0.00 0.00
6:53 pm 18:53 Sunny 50 10 25 -3.9 38 38 NE 8 13 30.10 1019 10 16 0.00 0.00
7:53 pm 19:53 Sunny 50 10 26 -3.3 39 39 NE 10 17 30.09 1019 10 16 0.00 0.00
8:53 pm 20:53 Clear 50 10 28 -2.2 43 43 NE 7 11 30.09 1019 10 16 0.00 0.00
9:53 pm 21:53 Mostly Clear 49 9.4 28 -2.2 44 44 NE 9 15 30.06 1018 10 16 0.00 0.00
10:53 pm 22:53 Mostly Cloudy 49 9.4 28 -2.2 44 44 NE 10 17 30.04 1017 10 16 0.00 0.00
11:53 pm 23:53 Clear 50 10 27 -2.8 41 41 ENE 13 20 30.01 1016 10 16 0.00 0.00

Powered by AerisWeather